Location: Highland Station (historical)
(44.9576°N, 123.0284°W)
Time: 00:57:35
(UTC+00:00)

ISS - Visible Passes

Search period start: 21 September 2020 00:00
Search period end: 01 October 2020 00:00
Orbit: 419 x 420 km, 51.6° (Epoch: 21 September)

Date Brightness Start Highest point End Pass type
(mag) Time Alt. Az. Time Alt. Az. Time Alt. Az.
21 Sep -3.6 03:22:55 10° WSW 03:26:16 72° NNW 03:28:44 17° NE visible
21 Sep -0.8 05:00:32 10° WNW 05:01:42 17° NW 05:01:42 17° NW visible
22 Sep -3.8 02:35:31 10° SW 02:38:52 76° SSE 02:42:15 10° ENE visible
22 Sep -2.2 04:12:53 10° WNW 04:15:56 31° NNW 04:16:17 30° N visible
23 Sep -2.5 03:25:14 10° W 03:28:24 37° NNW 03:30:47 16° NE visible
23 Sep -0.6 05:02:56 10° NW 05:03:45 15° NW 05:03:45 15° NW visible
24 Sep -2.9 02:37:37 10° W 02:40:53 49° NNW 02:44:12 10° NE visible
24 Sep -1.9 04:15:21 10° WNW 04:18:09 25° N 04:18:09 25° N visible
25 Sep -2.0 03:27:41 10° WNW 03:30:38 27° N 03:32:32 17° NE visible
25 Sep -0.4 05:05:03 10° NW 05:05:29 13° NW 05:05:29 13° NW visible
26 Sep -2.2 02:39:59 10° WNW 02:43:02 31° NNW 02:46:06 10° NE visible
26 Sep -1.7 04:17:34 10° NW 04:19:49 25° NNW 04:19:49 25° NNW visible
27 Sep -2.0 03:30:00 10° NW 03:32:53 25° N 03:34:07 20° NE visible
27 Sep -0.2 05:06:56 10° NW 05:07:04 11° NW 05:07:04 11° NW visible
28 Sep -2.0 02:42:22 10° WNW 02:45:15 25° N 02:48:08 10° NE visible
28 Sep -1.7 04:19:30 10° NW 04:21:22 26° NNW 04:21:22 26° NNW visible
29 Sep -2.5 03:32:01 10° NW 03:35:04 30° NNE 03:35:40 28° NE visible
30 Sep -2.2 02:44:29 10° NW 02:47:26 27° N 02:49:59 12° ENE visible
30 Sep -1.6 04:21:17 10° WNW 04:22:56 26° NW 04:22:56 26° NW visible
